RUK198P EGCC-GMTT

Flight info

Callsign RUK198P
Flight time N/A
Altitude 23000
Route KUXEM P17 BEPHE/N0439F360 DCT OSSEP DCT ELNIF DCT ZESPE DCT KLAKI DCT SALCO/N0439F370 DCT GOPIN DCT DELOG DCT VADOX DCT SNR DCT TITAN DCT RATAS DCT NEA DCT NONTU DCT ORBIS DCT DISKO DCT TLD DCT DOPEN DCT MONTO DCT MOLIN DCT VJF N10 LINTO DCT NOLRO
Aircraft B738/M-SDE2E3FGHIRWXY/LB1

Departure

Time 2026-05-01 14:26
Airport Manchester Airport (EGCC)

Arrival

Time N/A
Airport Tangier Ibn Battuta Airport (GMTT)
Time Latitude Longitude Altitude Speed Heading
2026-05-01 13:59 53.36060 -2.26837 246 ft 0 kts 313°
2026-05-01 14:13 53.36048 -2.26815 247 ft 4 kts 315°
2026-05-01 14:13 53.36032 -2.26789 247 ft 4 kts 310°
2026-05-01 14:14 53.36024 -2.26756 247 ft 4 kts 246°
2026-05-01 14:14 53.36038 -2.26723 247 ft 4 kts 228°
2026-05-01 14:14 53.36055 -2.26689 247 ft 3 kts 230°
2026-05-01 14:14 53.36068 -2.26660 247 ft 4 kts 241°
2026-05-01 14:15 53.36080 -2.26622 247 ft 2 kts 240°
2026-05-01 14:15 53.36091 -2.26590 247 ft 4 kts 237°
2026-05-01 14:15 53.36107 -2.26553 247 ft 4 kts 231°
2026-05-01 14:15 53.36120 -2.26526 247 ft 4 kts 231°
2026-05-01 14:16 53.36134 -2.26496 247 ft 1 kts 231°
2026-05-01 14:19 53.36133 -2.26498 247 ft 1 kts 231°
2026-05-01 14:19 53.36114 -2.26537 247 ft 9 kts 230°
2026-05-01 14:19 53.36034 -2.26573 251 ft 14 kts 182°
2026-05-01 14:19 53.35962 -2.26681 254 ft 14 kts 231°
2026-05-01 14:20 53.35938 -2.26705 255 ft 0 kts 186°
2026-05-01 14:22 53.35869 -2.26693 262 ft 12 kts 169°
2026-05-01 14:22 53.35750 -2.26659 265 ft 24 kts 171°
2026-05-01 14:22 53.35594 -2.26633 264 ft 21 kts 198°
2026-05-01 14:22 53.35484 -2.26803 260 ft 22 kts 230°
2026-05-01 14:23 53.35390 -2.26996 256 ft 21 kts 231°
2026-05-01 14:23 53.35297 -2.27173 252 ft 20 kts 218°
2026-05-01 14:23 53.35163 -2.27253 243 ft 15 kts 186°
2026-05-01 14:23 53.35057 -2.27279 239 ft 16 kts 189°
2026-05-01 14:24 53.34988 -2.27362 238 ft 7 kts 230°
2026-05-01 14:24 53.34986 -2.27367 238 ft 0 kts 230°
2026-05-01 14:25 53.34887 -2.27572 235 ft 58 kts 231°
2026-05-01 14:26 53.34486 -2.28404 221 ft 125 kts 231°
2026-05-01 14:26 53.33079 -2.31198 1154 ft 162 kts 223°
2026-05-01 14:26 53.32280 -2.32516 1896 ft 167 kts 231°
2026-05-01 14:27 53.31677 -2.34333 2155 ft 193 kts 251°
2026-05-01 14:27 53.31551 -2.36659 2454 ft 214 kts 277°
2026-05-01 14:27 53.31931 -2.39143 2856 ft 223 kts 281°
2026-05-01 14:28 53.32352 -2.44477 3310 ft 247 kts 250°
2026-05-01 14:28 53.31834 -2.47296 3699 ft 259 kts 251°
2026-05-01 14:28 53.31329 -2.50189 4459 ft 259 kts 250°
2026-05-01 14:28 53.30808 -2.53082 4880 ft 259 kts 250°
2026-05-01 14:29 53.30276 -2.55989 5022 ft 265 kts 249°
2026-05-01 14:29 53.29726 -2.58933 5374 ft 266 kts 246°
2026-05-01 14:30 53.26809 -2.66335 7690 ft 255 kts 212°
2026-05-01 14:30 53.25346 -2.68034 8403 ft 258 kts 211°
2026-05-01 14:30 53.23859 -2.69723 9151 ft 260 kts 211°
2026-05-01 14:31 53.20827 -2.73189 10486 ft 273 kts 211°
2026-05-01 14:31 53.19191 -2.75064 10653 ft 297 kts 212°
2026-05-01 14:31 53.17429 -2.77091 10924 ft 317 kts 212°
2026-05-01 14:31 53.15594 -2.79208 11498 ft 324 kts 212°
2026-05-01 14:32 53.13731 -2.81359 12219 ft 328 kts 212°
2026-05-01 14:32 53.11871 -2.83501 12935 ft 331 kts 212°
2026-05-01 14:32 53.09957 -2.85682 13653 ft 335 kts 210°
2026-05-01 14:32 53.07784 -2.87223 14315 ft 338 kts 192°
2026-05-01 14:33 53.05448 -2.87682 15023 ft 340 kts 179°
2026-05-01 14:33 53.03115 -2.87241 15728 ft 343 kts 172°
2026-05-01 14:33 53.00747 -2.86575 16406 ft 348 kts 171°
2026-05-01 14:33 52.98349 -2.85872 17068 ft 352 kts 171°
2026-05-01 14:34 52.95924 -2.85172 17748 ft 355 kts 171°
2026-05-01 14:34 52.93477 -2.84485 18464 ft 358 kts 172°
2026-05-01 14:34 52.91009 -2.83808 19053 ft 361 kts 172°
2026-05-01 14:34 52.88522 -2.83135 19672 ft 364 kts 172°
2026-05-01 14:35 52.86018 -2.82463 20291 ft 366 kts 172°
2026-05-01 14:35 52.83497 -2.81789 20892 ft 368 kts 172°
2026-05-01 14:35 52.80957 -2.81110 21487 ft 371 kts 172°
2026-05-01 14:35 52.78402 -2.80423 22070 ft 374 kts 172°
2026-05-01 14:36 52.75825 -2.79714 22636 ft 376 kts 172°
2026-05-01 14:36 52.73234 -2.78999 23192 ft 379 kts 172°
2026-05-01 14:36 52.70622 -2.78281 23729 ft 382 kts 172°
2026-05-01 14:36 52.67993 -2.77578 24182 ft 384 kts 172°
2026-05-01 14:37 52.65344 -2.76884 24634 ft 387 kts 172°
2026-05-01 14:37 52.62679 -2.76191 25072 ft 389 kts 173°
2026-05-01 14:37 52.59979 -2.75817 25488 ft 391 kts 181°
2026-05-01 14:37 52.57256 -2.76075 25925 ft 393 kts 184°
2026-05-01 14:38 52.54538 -2.76616 26336 ft 395 kts 188°
2026-05-01 14:38 52.51816 -2.77374 26734 ft 398 kts 189°
2026-05-01 14:38 52.49082 -2.78205 27139 ft 401 kts 190°
2026-05-01 14:38 52.46333 -2.79054 27524 ft 403 kts 190°
2026-05-01 14:39 52.43565 -2.79898 27908 ft 406 kts 190°
2026-05-01 14:39 52.40782 -2.80731 28294 ft 408 kts 189°
2026-05-01 14:39 52.37979 -2.81556 28666 ft 410 kts 189°
2026-05-01 14:39 52.35196 -2.82364 29034 ft 413 kts 189°
2026-05-01 14:40 52.32362 -2.83180 29396 ft 415 kts 189°
2026-05-01 14:40 52.29508 -2.83997 29724 ft 418 kts 189°
2026-05-01 14:40 52.26636 -2.84816 30065 ft 420 kts 189°
2026-05-01 14:40 52.23753 -2.85637 30362 ft 422 kts 189°
2026-05-01 14:41 52.20858 -2.86460 30686 ft 422 kts 189°
2026-05-01 14:41 52.17968 -2.87281 31088 ft 421 kts 189°
2026-05-01 14:41 52.15088 -2.88098 31493 ft 420 kts 189°
2026-05-01 14:41 52.12208 -2.88913 31816 ft 420 kts 189°
2026-05-01 14:42 52.09321 -2.89730 32105 ft 422 kts 189°
2026-05-01 14:42 52.06427 -2.90548 32409 ft 422 kts 189°
2026-05-01 14:42 52.03534 -2.91364 32769 ft 422 kts 189°
2026-05-01 14:42 52.01584 -2.91914 33018 ft 421 kts 189°
2026-05-01 14:43 51.98699 -2.92726 33351 ft 421 kts 189°
2026-05-01 14:43 51.95847 -2.93528 33698 ft 420 kts 189°
2026-05-01 14:43 51.92952 -2.94341 34278 ft 415 kts 189°
2026-05-01 14:43 51.90119 -2.95136 34647 ft 413 kts 189°
2026-05-01 14:44 51.87282 -2.95931 34849 ft 414 kts 189°
2026-05-01 14:44 51.81587 -2.97523 35376 ft 415 kts 189°
2026-05-01 14:44 51.78751 -2.98314 35737 ft 413 kts 189°
2026-05-01 14:45 51.75924 -2.99102 36013 ft 412 kts 189°
2026-05-01 14:45 51.70257 -3.00678 36444 ft 413 kts 189°
2026-05-01 14:45 51.67427 -3.01464 36726 ft 412 kts 189°
2026-05-01 14:46 51.64602 -3.02247 36990 ft 411 kts 189°
2026-05-01 14:46 51.58998 -3.03798 37462 ft 411 kts 189°
2026-05-01 14:46 51.56179 -3.04577 37716 ft 411 kts 189°
2026-05-01 14:47 51.53364 -3.05353 37956 ft 410 kts 189°
2026-05-01 14:47 51.50552 -3.06128 38169 ft 411 kts 189°
2026-05-01 14:47 51.47732 -3.06904 38354 ft 411 kts 189°
2026-05-01 14:48 51.42092 -3.08453 38772 ft 411 kts 189°
2026-05-01 14:48 51.39276 -3.09225 38948 ft 410 kts 189°
2026-05-01 14:48 51.33637 -3.10769 39151 ft 413 kts 190°
2026-05-01 14:49 51.22266 -3.13869 39182 ft 414 kts 190°
2026-05-01 14:50 51.10940 -3.16941 39184 ft 412 kts 190°
2026-05-01 14:51 51.02466 -3.19230 39179 ft 411 kts 190°
2026-05-01 14:52 50.94009 -3.21505 39182 ft 411 kts 189°
2026-05-01 14:53 50.85561 -3.23770 39182 ft 411 kts 189°
2026-05-01 14:53 50.79926 -3.25276 39186 ft 411 kts 189°
2026-05-01 14:54 50.74328 -3.26769 39183 ft 411 kts 189°
2026-05-01 14:54 50.68683 -3.28270 39196 ft 412 kts 190°
2026-05-01 14:55 50.63028 -3.29771 39188 ft 412 kts 190°
2026-05-01 14:55 50.57364 -3.31270 39176 ft 413 kts 190°
2026-05-01 14:56 50.51697 -3.32766 39191 ft 413 kts 190°
2026-05-01 14:56 50.46023 -3.34261 39193 ft 414 kts 190°
2026-05-01 14:57 50.40346 -3.35752 39194 ft 414 kts 190°
2026-05-01 14:57 50.31824 -3.37985 39203 ft 414 kts 190°
2026-05-01 14:58 50.26134 -3.39471 39207 ft 414 kts 190°
2026-05-01 14:58 50.20446 -3.40953 39208 ft 414 kts 190°
2026-05-01 14:59 50.14758 -3.42431 39210 ft 415 kts 190°
2026-05-01 14:59 50.09067 -3.43906 39207 ft 414 kts 190°
2026-05-01 15:00 50.00535 -3.46112 39212 ft 414 kts 190°
2026-05-01 15:01 49.94850 -3.47577 39213 ft 414 kts 190°
2026-05-01 15:01 49.89164 -3.49040 39209 ft 414 kts 191°
2026-05-01 15:02 49.83481 -3.50498 39218 ft 414 kts 191°
2026-05-01 15:02 49.77798 -3.51953 39221 ft 414 kts 191°
2026-05-01 15:03 49.72136 -3.53223 39218 ft 415 kts 185°
2026-05-01 15:03 49.66364 -3.53587 39210 ft 415 kts 183°
2026-05-01 15:04 49.60586 -3.53837 39222 ft 415 kts 184°
2026-05-01 15:04 49.54807 -3.54126 39221 ft 416 kts 184°
2026-05-01 15:05 49.49019 -3.54450 39221 ft 416 kts 184°
2026-05-01 15:05 49.43231 -3.54786 39217 ft 416 kts 184°
2026-05-01 15:06 49.37441 -3.55125 39224 ft 417 kts 184°
2026-05-01 15:06 49.31644 -3.55463 39223 ft 417 kts 184°
2026-05-01 15:07 49.25842 -3.55800 39233 ft 417 kts 184°
2026-05-01 15:07 49.20040 -3.56136 39219 ft 417 kts 184°
2026-05-01 15:08 49.14242 -3.56470 39222 ft 416 kts 184°
2026-05-01 15:08 49.08457 -3.56803 39220 ft 416 kts 184°
2026-05-01 15:09 49.02680 -3.57136 39215 ft 415 kts 184°
2026-05-01 15:09 48.96911 -3.57466 39214 ft 414 kts 184°
2026-05-01 15:10 48.91154 -3.57796 39215 ft 414 kts 184°
2026-05-01 15:10 48.82530 -3.58288 39212 ft 413 kts 184°
2026-05-01 15:11 48.73911 -3.58778 39213 ft 413 kts 184°
2026-05-01 15:12 48.68203 -3.59102 39213 ft 413 kts 184°
2026-05-01 15:12 48.59575 -3.59590 39202 ft 414 kts 184°
2026-05-01 15:14 48.45177 -3.60400 39203 ft 415 kts 184°
2026-05-01 15:14 48.36508 -3.60886 39192 ft 416 kts 184°
2026-05-01 15:15 48.24925 -3.61532 39195 ft 417 kts 184°
2026-05-01 15:16 48.13328 -3.62176 39194 ft 417 kts 184°
2026-05-01 15:18 47.98825 -3.62978 39206 ft 417 kts 184°
2026-05-01 15:19 47.87229 -3.63615 39203 ft 417 kts 184°
2026-05-01 15:19 47.78545 -3.64091 39212 ft 416 kts 184°
2026-05-01 15:20 47.69863 -3.64565 39207 ft 416 kts 184°
2026-05-01 15:21 47.64116 -3.64878 39213 ft 416 kts 184°
2026-05-01 15:21 47.58335 -3.65192 39215 ft 416 kts 184°
2026-05-01 15:22 47.49664 -3.65662 39204 ft 416 kts 184°
2026-05-01 15:22 47.43880 -3.65974 39216 ft 416 kts 184°
2026-05-01 15:23 47.38092 -3.66286 39226 ft 416 kts 184°
2026-05-01 15:23 47.32301 -3.66598 39212 ft 417 kts 184°
2026-05-01 15:24 47.26502 -3.66909 39221 ft 417 kts 184°
2026-05-01 15:24 47.20696 -3.67220 39222 ft 418 kts 184°
2026-05-01 15:25 47.14884 -3.67531 39217 ft 418 kts 184°
2026-05-01 15:25 47.09063 -3.67841 39217 ft 419 kts 184°
2026-05-01 15:26 47.03239 -3.68159 39223 ft 419 kts 185°
2026-05-01 15:26 46.97431 -3.68782 39241 ft 418 kts 187°
2026-05-01 15:27 46.91632 -3.69532 39224 ft 418 kts 187°
2026-05-01 15:28 46.82933 -3.70611 39217 ft 418 kts 186°
2026-05-01 15:28 46.78121 -3.71183 39221 ft 417 kts 186°
2026-05-01 15:29 46.69450 -3.72202 39213 ft 416 kts 186°
2026-05-01 15:30 46.57924 -3.73551 39216 ft 415 kts 186°
2026-05-01 15:31 46.40687 -3.75558 39212 ft 414 kts 186°
2026-05-01 15:32 46.29209 -3.76887 39202 ft 414 kts 186°
2026-05-01 15:34 46.11960 -3.78875 39203 ft 415 kts 186°